User: anonymous   Login
Location: Unspecified
(0.0000°N, 0.0000°E)
Time: 09:07:07
(UTC+02:00)
Language:

Cosmos 1538 Rocket - Orbit

View from above orbital plane
View from above orbital plane
View from above satellite
View from above satellite

Ground track
Ground track

The orbit data is extracted from the following two-line orbital elements,

1 14760U 84019B   15116.56567314  .00000364  00000-0  13457-3 0  9997
2 14760 074.0419 117.3773 0027812 172.0684 326.5522 14.35674764631262
Epoch (UTC): 26 April 2015 13:34:34
Eccentricity: 0.0027812
inclination: 74.0419°
perigee height: 753 km
apogee height: 793 km
right ascension of ascending node: 117.3773°
argument of perigee: 172.0684°
revolutions per day: 14.35674764
mean anomaly at epoch: 326.5522°
orbit number at epoch: 63126

The dashed part of the orbit path shows where the satellite is in the earth's shadow,  

DLR